Location: Astroquest
(35.1187°N, 89.7105°W)
Time: 14:56:13
(UTC-06:00)

Envisat - Visible Passes

Search period start: 20 January 2018 00:00
Search period end: 30 January 2018 00:00
Orbit: 764 x 766 km, 98.2° (Epoch: 20 January)

Date Brightness Start Highest point End Pass type
(mag) Time Alt. Az. Time Alt. Az. Time Alt. Az.
20 Jan 5.3 19:28:45 12° N 19:28:45 12° N 19:29:12 10° N visible
21 Jan 5.0 18:51:21 12° NNE 18:51:21 12° NNE 18:51:51 10° NNE visible
22 Jan 5.3 19:54:07 14° NNW 19:54:07 14° NNW 19:54:50 10° NNW visible
23 Jan 4.8 19:16:42 17° N 19:16:42 17° N 19:17:57 10° N visible
24 Jan 4.8 18:39:16 14° NNE 18:39:16 14° NNE 18:40:22 10° NNE visible
24 Jan 5.5 20:19:27 14° NNW 20:19:27 14° NNW 20:20:09 10° NNW visible
25 Jan 4.7 19:42:01 22° N 19:42:01 22° N 19:43:43 10° N visible
26 Jan 4.4 19:04:34 22° NNE 19:04:34 22° NNE 19:06:39 10° N visible
26 Jan 5.8 20:44:45 11° NW 20:44:45 11° NW 20:44:59 10° NW visible
27 Jan 4.7 18:27:07 15° NE 18:27:07 15° NE 18:28:43 10° NNE visible
27 Jan 4.9 20:07:18 22° NNW 20:07:18 22° NNW 20:09:11 10° NNW visible
28 Jan 4.1 19:29:51 32° N 19:29:51 32° N 19:32:33 10° N visible
29 Jan 4.1 18:52:23 25° NE 18:52:23 25° NE 18:55:18 10° NNE visible
29 Jan 5.3 20:32:33 18° NW 20:32:33 18° NW 20:34:15 10° NW visible
